STARLINK-1762 (46342 NORAD) Tracking and Keplerian Element Data

This shows tracking and keplerian element data for the satellite.

Feedback or suggestion? Click here.




ElementValue
Catalog46342
NameSTARLINK-1762
Epoch Orbit402
Epoch Day267.83334491
Epoch Year2020
RAAN329.8289
Inclination52.9997
Eccentricity0.0001321
Argument of Perigee62.9266
Mean Anonmoly154.1394
Mean Motion15.62798351
Decay Rate-0.00031833
L11 46342U 20062T 20267.83334491 -.00031833 00000-0 -34255-3 0 9993
L22 46342 52.9997 329.8289 0001321 62.9266 154.1394 15.62798351 4021

Live tracking and technical data element details for STARLINK-1762 (NORAD 46342). STARLINK-1762 can be tracked NOW for your location showing map with azimuth and elevation plus other details from your city location.

Track the satellite on the map from your city or location and see movement details for azimuth, elevation, latitude, longitude, range, height, and movement on the map or in text.







IsCatalogInMostPopularTable: catalog: 46342, numindb: 1
Update: records affected: 1



GetName: 46342 STARLINK-1762

Hit Count: updated at: Thu, 24 Sep 2020 18:20:28 GMT